DEBRISSAT-1 (43621 NORAD) Tracking and Keplerian Element Data

This shows tracking and keplerian element data for the satellite.

Feedback or suggestion? Click here.




ElementValue
Catalog43621
NameDEBRISSAT-1
Epoch Orbit2611
Epoch Day61.2389892
Epoch Year2019
RAAN153.4152
Inclination51.6125
Eccentricity0.0004233
Argument of Perigee358.3622
Mean Anonmoly3.0151
Mean Motion16.34053878
Decay Rate0.23242489
L11 43621U 98067PM 19061.23898920 .23242489 12305-4 32983-2 0 9990
L22 43621 51.6125 153.4152 0004233 358.3622 3.0151 16.34053878 26115

Live tracking and technical data element details for DEBRISSAT-1 (NORAD 43621). DEBRISSAT-1 can be tracked NOW for your location showing map with azimuth and elevation plus other details from your city location.

Track the satellite on the map from your city or location and see movement details for azimuth, elevation, latitude, longitude, range, height, and movement on the map or in text.







IsCatalogInMostPopularTable: catalog: 43621, numindb: 102
Update: records affected: 1



GetName: 43621 DEBRISSAT-1

Hit Count: updated at: Tue, 23 Apr 2019 20:24:25 GMT